GFSNE_prec_pwat_228.txt.gz
Precipitable_Water
1.30 1.27 1.23 1.20 1.18 1.14 1.10 1.07 0.99 0.85 0.87 0.98 1.01 1.13 1.16 1.21 1.21 1.25 1.26 1.25 1.22 1.22 1.21 1.21 1.20 1.16 1.08 1.07 1.07 1.04 1.02 1.01 0.89 0.92 0.89 0.86 0.85 0.83
1.36 1.33 1.30 1.28 1.24 1.19 1.15 1.12 1.06 0.99 0.90 1.06 1.07 1.16 1.24 1.25 1.28 1.28 1.30 1.29 1.29 1.26 1.21 1.24 1.22 1.23 1.18 1.16 1.09 1.05 1.06 1.02 0.93 0.91 0.88 0.84 0.85 0.81
1.38 1.34 1.31 1.34 1.28 1.24 1.21 1.16 1.11 1.06 0.94 1.01 1.09 1.15 1.13 1.14 1.20 1.19 1.28 1.25 1.25 1.25 1.22 1.32 1.25 1.26 1.16 1.14 1.08 1.04 1.01 0.99 0.91 0.90 0.87 0.81 0.85 0.87
1.39 1.38 1.33 1.33 1.26 1.28 1.25 1.20 1.17 1.16 1.06 0.97 1.07 1.09 1.12 1.20 1.21 1.22 1.29 1.27 1.28 1.29 1.28 1.29 1.27 1.24 1.19 1.14 1.08 1.03 0.99 0.99 0.92 0.90 0.87 0.81 0.79 0.83
1.34 1.35 1.35 1.37 1.30 1.31 1.26 1.23 1.20 1.21 1.18 1.09 1.06 1.15 1.17 1.19 1.19 1.26 1.25 1.28 1.31 1.32 1.27 1.28 1.27 1.20 1.17 1.10 1.05 0.99 0.97 0.94 0.94 0.86 0.83 0.82 0.78 0.81
1.37 1.36 1.39 1.36 1.34 1.31 1.31 1.26 1.27 1.23 1.22 1.17 1.13 1.11 1.15 1.20 1.21 1.16 1.14 1.22 1.20 1.25 1.31 1.27 1.19 1.15 1.10 1.06 1.02 0.97 0.92 0.92 0.89 0.83 0.82 0.80 0.76 0.81
1.48 1.42 1.40 1.41 1.42 1.44 1.34 1.31 1.32 1.24 1.19 1.15 1.13 1.12 1.12 1.12 1.13 1.19 1.14 1.13 1.18 1.16 1.17 1.12 1.10 1.05 1.05 1.03 1.02 0.99 0.93 0.91 0.87 0.83 0.78 0.78 0.76 0.78
1.41 1.50 1.43 1.55 1.47 1.48 1.44 1.45 1.42 1.33 1.25 1.22 1.22 1.13 1.16 1.21 1.22 1.16 1.17 1.06 1.05 1.14 1.09 1.01 1.05 0.99 1.01 1.02 1.01 0.96 0.91 0.86 0.83 0.78 0.77 0.73 0.75 0.76
1.43 1.39 1.35 1.33 1.34 1.34 1.36 1.41 1.38 1.41 1.43 1.38 1.27 1.16 1.21 1.29 1.24 1.15 1.11 1.08 1.02 1.07 1.04 0.88 1.00 0.94 0.97 0.97 0.96 0.94 0.88 0.84 0.82 0.80 0.77 0.76 0.75 0.75
1.27 1.37 1.35 1.30 1.36 1.38 1.43 1.35 1.37 1.38 1.40 1.40 1.30 1.26 1.27 1.29 1.27 1.23 1.13 1.05 0.98 0.98 1.00 0.81 0.90 0.88 0.92 0.93 0.92 0.90 0.85 0.82 0.80 0.78 0.77 0.76 0.75 0.73
1.09 1.21 1.25 1.37 1.36 1.34 1.29 1.29 1.25 1.26 1.36 1.37 1.37 1.33 1.26 1.22 1.24 1.16 1.04 1.02 0.88 0.85 0.92 0.88 0.85 0.82 0.84 0.81 0.83 0.83 0.82 0.79 0.78 0.75 0.74 0.75 0.73 0.71
0.96 1.05 1.09 1.14 1.21 1.27 1.25 1.20 1.15 1.18 1.27 1.24 1.25 1.24 1.23 1.18 1.18 1.13 1.08 0.95 0.84 0.76 0.82 0.77 0.81 0.80 0.67 0.75 0.76 0.76 0.76 0.77 0.75 0.73 0.71 0.72 0.71 0.67
0.81 0.87 1.00 1.06 1.09 1.14 1.16 1.16 1.18 1.23 1.22 1.20 1.18 1.16 1.15 1.14 1.12 1.12 1.08 0.98 0.83 0.78 0.87 0.82 0.75 0.72 0.66 0.62 0.66 0.69 0.70 0.70 0.69 0.69 0.68 0.69 0.68 0.66
0.82 0.86 0.92 0.93 1.01 1.02 1.07 1.08 1.11 1.11 1.06 1.02 0.98 0.95 0.93 0.93 0.97 0.99 0.99 0.95 0.89 0.85 0.82 0.81 0.71 0.68 0.63 0.58 0.57 0.64 0.65 0.66 0.66 0.65 0.65 0.66 0.65 0.64
0.80 0.82 0.90 0.89 0.89 0.98 0.99 0.98 0.98 0.95 0.92 0.89 0.86 0.87 0.89 0.89 0.90 0.86 0.87 0.85 0.80 0.79 0.78 0.76 0.72 0.67 0.63 0.58 0.58 0.59 0.58 0.61 0.64 0.63 0.62 0.61 0.60 0.60
0.65 0.74 0.81 0.86 0.84 0.87 0.90 0.89 0.88 0.86 0.83 0.81 0.79 0.80 0.81 0.79 0.77 0.79 0.74 0.73 0.69 0.69 0.74 0.74 0.71 0.67 0.61 0.62 0.62 0.59 0.60 0.55 0.60 0.60 0.59 0.59 0.59 0.59
0.64 0.68 0.72 0.76 0.76 0.79 0.80 0.80 0.80 0.79 0.76 0.74 0.73 0.71 0.69 0.70 0.69 0.72 0.71 0.70 0.65 0.63 0.62 0.65 0.67 0.66 0.64 0.61 0.57 0.59 0.57 0.57 0.59 0.58 0.56 0.54 0.56 0.57
0.62 0.64 0.66 0.70 0.71 0.74 0.73 0.72 0.72 0.72 0.71 0.69 0.68 0.68 0.66 0.67 0.67 0.68 0.68 0.65 0.62 0.60 0.59 0.60 0.60 0.58 0.57 0.59 0.63 0.56 0.56 0.55 0.55 0.55 0.54 0.49 0.48 0.52
0.60 0.59 0.62 0.65 0.68 0.68 0.65 0.65 0.64 0.67 0.68 0.67 0.66 0.65 0.65 0.64 0.62 0.61 0.61 0.60 0.59 0.58 0.58 0.59 0.57 0.54 0.49 0.47 0.55 0.59 0.52 0.51 0.49 0.47 0.48 0.46 0.44 0.45
0.61 0.59 0.60 0.62 0.63 0.61 0.62 0.64 0.66 0.67 0.67 0.65 0.64 0.62 0.61 0.60 0.58 0.56 0.55 0.54 0.53 0.54 0.54 0.55 0.54 0.53 0.48 0.45 0.44 0.48 0.52 0.46 0.44 0.43 0.42 0.43 0.44 0.44
0.62 0.62 0.63 0.63 0.63 0.64 0.63 0.62 0.61 0.60 0.60 0.59 0.58 0.57 0.57 0.55 0.53 0.53 0.54 0.54 0.53 0.50 0.46 0.46 0.49 0.51 0.48 0.46 0.40 0.41 0.45 0.47 0.45 0.41 0.41 0.38 0.35 0.35
0.64 0.61 0.62 0.63 0.62 0.62 0.61 0.60 0.60 0.57 0.56 0.55 0.53 0.52 0.51 0.51 0.49 0.48 0.47 0.44 0.42 0.42 0.42 0.44 0.45 0.44 0.41 0.38 0.35 0.36 0.38 0.42 0.45 0.45 0.44 0.40 0.33 0.29
0.61 0.62 0.61 0.62 0.61 0.59 0.56 0.55 0.52 0.48 0.47 0.46 0.46 0.46 0.45 0.43 0.43 0.42 0.41 0.40 0.40 0.39 0.39 0.38 0.39 0.39 0.37 0.37 0.36 0.35 0.35 0.36 0.37 0.35 0.37 0.40 0.39 0.38

GFSNE_prec_pwat_231.txt.gz
Precipitable_Water
1.35 1.33 1.28 1.28 1.24 1.20 1.18 1.14 1.03 0.87 0.87 1.00 1.00 1.15 1.16 1.19 1.21 1.23 1.23 1.24 1.22 1.21 1.25 1.20 1.23 1.21 1.18 1.14 1.18 1.17 1.09 1.11 1.04 0.99 0.97 0.98 0.93 0.92
1.40 1.36 1.34 1.32 1.31 1.29 1.24 1.23 1.18 1.09 0.94 1.07 1.11 1.18 1.23 1.23 1.25 1.26 1.25 1.27 1.27 1.25 1.27 1.27 1.28 1.25 1.21 1.20 1.21 1.18 1.08 1.07 1.03 0.98 0.94 0.97 0.91 0.90
1.40 1.38 1.33 1.34 1.29 1.28 1.28 1.27 1.23 1.22 1.08 1.13 1.18 1.21 1.18 1.22 1.25 1.29 1.32 1.32 1.31 1.32 1.27 1.27 1.26 1.26 1.25 1.24 1.23 1.18 1.11 1.05 1.01 0.97 0.94 0.95 0.88 0.88
1.49 1.41 1.34 1.33 1.29 1.28 1.27 1.24 1.24 1.24 1.18 1.10 1.20 1.18 1.17 1.22 1.23 1.20 1.24 1.26 1.27 1.30 1.26 1.30 1.27 1.30 1.28 1.25 1.22 1.16 1.09 1.04 1.00 0.95 0.94 0.90 0.86 0.83
1.56 1.51 1.45 1.39 1.31 1.29 1.23 1.21 1.22 1.21 1.21 1.17 1.14 1.22 1.22 1.25 1.22 1.23 1.23 1.25 1.32 1.27 1.37 1.34 1.28 1.31 1.28 1.24 1.23 1.19 1.09 1.01 0.99 0.94 0.91 0.88 0.87 0.86
1.58 1.56 1.47 1.44 1.43 1.41 1.35 1.30 1.29 1.24 1.31 1.19 1.17 1.15 1.19 1.23 1.24 1.17 1.15 1.22 1.23 1.30 1.32 1.36 1.36 1.31 1.28 1.25 1.21 1.14 1.07 1.01 0.98 0.94 0.90 0.88 0.86 0.80
1.44 1.41 1.54 1.54 1.48 1.46 1.40 1.35 1.35 1.28 1.26 1.18 1.16 1.22 1.12 1.13 1.16 1.21 1.18 1.21 1.25 1.25 1.28 1.30 1.32 1.26 1.23 1.23 1.19 1.11 1.05 1.01 0.97 0.93 0.89 0.87 0.83 0.79
1.37 1.43 1.45 1.51 1.46 1.49 1.50 1.44 1.44 1.36 1.27 1.22 1.19 1.13 1.12 1.23 1.25 1.21 1.20 1.13 1.07 1.30 1.24 1.22 1.28 1.21 1.22 1.20 1.18 1.13 1.06 1.00 0.95 0.93 0.89 0.86 0.83 0.77
1.34 1.41 1.35 1.38 1.41 1.44 1.47 1.40 1.38 1.38 1.44 1.36 1.27 1.30 1.26 1.28 1.31 1.24 1.21 1.17 1.10 1.16 1.19 1.08 1.17 1.16 1.18 1.21 1.15 1.10 1.06 1.01 0.94 0.91 0.88 0.83 0.79 0.75
1.22 1.33 1.33 1.31 1.36 1.38 1.34 1.37 1.36 1.35 1.34 1.37 1.37 1.33 1.32 1.36 1.34 1.29 1.24 1.16 1.15 1.15 1.17 1.00 1.09 1.09 1.12 1.09 1.09 1.08 1.04 1.02 0.97 0.92 0.86 0.81 0.76 0.73
0.89 1.03 1.17 1.22 1.32 1.31 1.30 1.25 1.23 1.25 1.36 1.33 1.33 1.36 1.37 1.32 1.32 1.24 1.13 1.08 1.02 1.04 1.10 1.04 1.03 0.98 1.00 0.98 0.99 1.00 1.00 0.98 0.95 0.88 0.83 0.78 0.75 0.72
0.78 0.81 0.91 0.98 1.10 1.21 1.17 1.21 1.10 1.14 1.25 1.26 1.27 1.27 1.30 1.32 1.28 1.28 1.18 1.06 1.01 0.94 1.05 0.98 0.97 0.97 0.87 0.90 0.90 0.92 0.91 0.91 0.90 0.86 0.81 0.78 0.74 0.71
0.75 0.77 0.78 0.86 0.95 1.01 1.07 1.08 1.08 1.23 1.22 1.21 1.16 1.20 1.18 1.18 1.21 1.22 1.20 1.13 1.03 0.97 1.04 1.00 0.94 0.91 0.85 0.76 0.79 0.82 0.84 0.82 0.80 0.78 0.78 0.76 0.73 0.70
0.60 0.72 0.79 0.83 0.85 0.91 1.00 1.04 1.06 1.09 1.09 1.08 1.07 1.09 1.08 1.07 1.12 1.16 1.15 1.13 1.08 1.04 1.02 0.98 0.88 0.84 0.76 0.68 0.65 0.71 0.73 0.74 0.73 0.71 0.71 0.71 0.70 0.69
0.57 0.60 0.68 0.77 0.82 0.86 0.90 0.91 0.96 0.98 0.95 0.96 0.96 1.00 1.01 1.01 1.01 1.01 1.00 0.99 0.98 0.95 0.92 0.89 0.83 0.78 0.71 0.65 0.63 0.63 0.63 0.66 0.68 0.67 0.66 0.65 0.63 0.63
0.54 0.56 0.58 0.61 0.71 0.80 0.84 0.88 0.92 0.93 0.94 0.94 0.93 0.94 0.93 0.94 0.91 0.94 0.89 0.89 0.85 0.81 0.83 0.84 0.80 0.76 0.68 0.65 0.63 0.60 0.61 0.57 0.62 0.62 0.62 0.60 0.60 0.60
0.51 0.52 0.53 0.53 0.54 0.63 0.71 0.78 0.84 0.87 0.87 0.88 0.86 0.85 0.86 0.85 0.83 0.84 0.81 0.78 0.73 0.71 0.71 0.73 0.72 0.72 0.69 0.65 0.58 0.58 0.56 0.56 0.59 0.59 0.57 0.55 0.57 0.59
0.46 0.46 0.46 0.50 0.52 0.57 0.63 0.70 0.76 0.80 0.81 0.80 0.81 0.81 0.79 0.78 0.76 0.76 0.75 0.71 0.66 0.66 0.65 0.66 0.65 0.62 0.60 0.60 0.62 0.56 0.56 0.56 0.57 0.56 0.56 0.52 0.52 0.56
0.40 0.46 0.47 0.49 0.55 0.60 0.63 0.65 0.68 0.74 0.76 0.75 0.77 0.77 0.74 0.71 0.70 0.69 0.70 0.69 0.66 0.65 0.63 0.63 0.61 0.57 0.51 0.49 0.57 0.61 0.54 0.54 0.55 0.53 0.54 0.52 0.50 0.52
0.41 0.43 0.47 0.52 0.59 0.61 0.63 0.64 0.65 0.66 0.68 0.69 0.69 0.69 0.68 0.68 0.68 0.67 0.67 0.64 0.62 0.61 0.59 0.60 0.59 0.57 0.52 0.49 0.49 0.54 0.58 0.53 0.51 0.49 0.49 0.50 0.51 0.53
0.40 0.46 0.52 0.51 0.56 0.60 0.60 0.63 0.63 0.61 0.63 0.63 0.65 0.66 0.66 0.65 0.62 0.62 0.61 0.60 0.57 0.55 0.52 0.52 0.55 0.57 0.55 0.55 0.48 0.48 0.51 0.53 0.51 0.47 0.46 0.41 0.39 0.39
0.44 0.49 0.57 0.60 0.59 0.62 0.63 0.64 0.64 0.61 0.61 0.61 0.60 0.60 0.59 0.58 0.55 0.54 0.53 0.52 0.51 0.51 0.50 0.52 0.54 0.52 0.50 0.46 0.41 0.41 0.43 0.45 0.47 0.47 0.46 0.42 0.37 0.33
0.52 0.59 0.61 0.64 0.64 0.64 0.63 0.61 0.60 0.59 0.58 0.57 0.55 0.54 0.53 0.50 0.52 0.52 0.50 0.49 0.47 0.46 0.44 0.43 0.43 0.44 0.42 0.41 0.39 0.38 0.39 0.39 0.39 0.38 0.39 0.44 0.43 0.41

GFSNE_prec_pwat_234.txt.gz
Precipitable_Water
1.33 1.27 1.26 1.25 1.23 1.17 1.12 1.09 1.02 0.89 0.90 1.03 1.06 1.22 1.24 1.25 1.24 1.24 1.23 1.23 1.23 1.21 1.19 1.20 1.21 1.23 1.24 1.20 1.21 1.23 1.13 1.20 1.10 1.14 1.08 1.05 1.01 0.99
1.38 1.31 1.28 1.28 1.27 1.25 1.18 1.13 1.10 1.03 0.89 1.03 1.08 1.15 1.23 1.22 1.24 1.23 1.22 1.23 1.23 1.21 1.20 1.22 1.20 1.23 1.25 1.27 1.28 1.23 1.18 1.22 1.15 1.16 1.10 1.07 1.00 0.95
1.47 1.40 1.33 1.34 1.30 1.29 1.28 1.26 1.20 1.17 1.03 1.09 1.16 1.21 1.20 1.19 1.25 1.29 1.29 1.28 1.28 1.31 1.33 1.31 1.30 1.32 1.32 1.26 1.25 1.21 1.22 1.21 1.18 1.17 1.10 1.04 0.98 0.93
1.51 1.49 1.44 1.44 1.40 1.39 1.33 1.29 1.24 1.26 1.18 1.09 1.19 1.20 1.23 1.28 1.27 1.24 1.27 1.28 1.31 1.30 1.31 1.32 1.27 1.27 1.27 1.24 1.25 1.25 1.27 1.24 1.22 1.17 1.12 1.04 0.99 0.93
1.58 1.53 1.52 1.53 1.46 1.44 1.37 1.34 1.33 1.30 1.27 1.21 1.18 1.25 1.25 1.27 1.25 1.29 1.26 1.27 1.31 1.33 1.27 1.26 1.30 1.29 1.35 1.27 1.36 1.29 1.26 1.27 1.23 1.17 1.09 1.03 0.98 0.93
1.47 1.53 1.49 1.52 1.50 1.50 1.53 1.43 1.40 1.34 1.27 1.19 1.17 1.15 1.20 1.24 1.25 1.19 1.15 1.28 1.28 1.34 1.33 1.28 1.31 1.33 1.29 1.30 1.35 1.31 1.29 1.27 1.22 1.15 1.06 1.00 0.96 0.92
1.49 1.46 1.43 1.43 1.44 1.48 1.42 1.35 1.43 1.36 1.33 1.28 1.22 1.20 1.15 1.15 1.11 1.22 1.21 1.24 1.24 1.30 1.29 1.32 1.30 1.32 1.29 1.32 1.31 1.31 1.29 1.26 1.21 1.15 1.08 1.02 0.96 0.91
1.42 1.48 1.44 1.45 1.46 1.46 1.46 1.48 1.42 1.40 1.30 1.26 1.24 1.16 1.18 1.25 1.28 1.27 1.22 1.19 1.17 1.36 1.25 1.20 1.33 1.28 1.32 1.32 1.32 1.29 1.29 1.26 1.20 1.15 1.11 1.03 0.97 0.92
1.30 1.34 1.38 1.40 1.43 1.47 1.44 1.47 1.49 1.47 1.43 1.40 1.25 1.24 1.24 1.25 1.29 1.23 1.23 1.19 1.14 1.26 1.24 1.16 1.24 1.22 1.30 1.31 1.32 1.30 1.26 1.25 1.21 1.15 1.10 1.02 0.97 0.93
1.15 1.24 1.25 1.26 1.31 1.35 1.40 1.36 1.37 1.37 1.36 1.40 1.34 1.31 1.32 1.34 1.31 1.29 1.29 1.28 1.25 1.23 1.21 1.04 1.16 1.15 1.20 1.25 1.27 1.25 1.23 1.21 1.17 1.12 1.08 1.00 0.94 0.92
0.83 0.90 1.02 1.16 1.22 1.29 1.25 1.27 1.26 1.29 1.39 1.39 1.42 1.37 1.37 1.36 1.35 1.27 1.16 1.12 1.06 1.11 1.19 1.11 1.06 1.08 1.10 1.11 1.18 1.20 1.18 1.14 1.13 1.11 1.06 0.98 0.94 0.91
0.71 0.73 0.77 0.85 1.00 1.05 1.17 1.17 1.09 1.16 1.25 1.27 1.27 1.28 1.31 1.31 1.31 1.27 1.19 1.11 1.04 1.00 1.10 1.07 1.04 1.01 0.94 1.05 1.09 1.13 1.12 1.11 1.09 1.04 1.01 0.96 0.92 0.86
0.59 0.69 0.80 0.81 0.78 0.85 0.93 0.93 0.99 1.13 1.17 1.18 1.19 1.19 1.19 1.20 1.21 1.24 1.20 1.16 1.05 1.02 1.12 1.10 0.99 0.99 0.97 0.93 0.97 1.01 1.04 1.02 1.01 0.98 0.96 0.93 0.89 0.81
0.38 0.50 0.60 0.75 0.81 0.82 0.83 0.85 0.91 0.96 0.99 1.01 1.05 1.05 1.06 1.11 1.17 1.17 1.20 1.17 1.15 1.13 1.13 1.08 0.97 0.97 0.93 0.88 0.86 0.93 0.92 0.93 0.92 0.87 0.86 0.85 0.84 0.80
0.45 0.44 0.51 0.58 0.64 0.75 0.83 0.87 0.88 0.84 0.88 0.86 0.86 0.94 1.02 1.07 1.06 1.08 1.11 1.12 1.09 1.04 1.05 1.03 0.98 0.90 0.89 0.81 0.79 0.80 0.79 0.80 0.83 0.80 0.79 0.77 0.75 0.73
0.42 0.42 0.48 0.52 0.56 0.59 0.63 0.71 0.82 0.87 0.86 0.84 0.87 0.89 0.90 0.90 0.92 0.94 0.97 0.95 0.90 0.89 0.95 0.94 0.91 0.87 0.80 0.79 0.77 0.75 0.75 0.71 0.74 0.73 0.73 0.71 0.70 0.69
0.40 0.38 0.39 0.44 0.47 0.50 0.53 0.57 0.64 0.71 0.78 0.85 0.87 0.87 0.82 0.85 0.89 0.91 0.90 0.86 0.85 0.80 0.82 0.86 0.88 0.87 0.81 0.79 0.71 0.70 0.69 0.67 0.68 0.67 0.64 0.61 0.63 0.64
0.35 0.32 0.33 0.38 0.40 0.46 0.48 0.51 0.56 0.60 0.68 0.75 0.79 0.82 0.83 0.84 0.81 0.80 0.82 0.83 0.78 0.78 0.77 0.77 0.76 0.73 0.72 0.72 0.73 0.65 0.63 0.61 0.62 0.62 0.60 0.56 0.55 0.59
0.31 0.30 0.33 0.35 0.37 0.42 0.45 0.49 0.52 0.60 0.66 0.71 0.74 0.75 0.76 0.78 0.76 0.74 0.75 0.75 0.73 0.73 0.73 0.72 0.70 0.66 0.60 0.55 0.63 0.68 0.59 0.59 0.58 0.56 0.56 0.54 0.52 0.54
0.29 0.27 0.31 0.36 0.39 0.43 0.46 0.48 0.53 0.58 0.63 0.66 0.68 0.69 0.70 0.70 0.71 0.70 0.70 0.68 0.68 0.68 0.67 0.68 0.67 0.65 0.60 0.57 0.55 0.59 0.63 0.56 0.54 0.52 0.51 0.53 0.54 0.55
0.30 0.29 0.32 0.35 0.41 0.48 0.49 0.51 0.54 0.58 0.61 0.63 0.64 0.63 0.65 0.66 0.65 0.66 0.66 0.67 0.66 0.65 0.63 0.63 0.65 0.66 0.63 0.60 0.52 0.51 0.55 0.58 0.56 0.51 0.50 0.47 0.46 0.46
0.31 0.32 0.37 0.39 0.41 0.48 0.52 0.53 0.55 0.58 0.57 0.58 0.60 0.60 0.60 0.61 0.61 0.62 0.64 0.63 0.62 0.61 0.59 0.60 0.60 0.58 0.53 0.49 0.46 0.47 0.49 0.51 0.54 0.54 0.53 0.48 0.43 0.38
0.32 0.35 0.41 0.41 0.45 0.48 0.53 0.53 0.55 0.56 0.58 0.58 0.59 0.59 0.60 0.60 0.60 0.60 0.59 0.58 0.55 0.52 0.52 0.50 0.51 0.51 0.49 0.48 0.45 0.43 0.42 0.42 0.42 0.40 0.42 0.46 0.44 0.43

GFSNE_prec_pwat_237.txt.gz
Precipitable_Water
1.37 1.31 1.28 1.31 1.31 1.27 1.21 1.11 1.00 0.88 0.93 1.06 1.06 1.21 1.23 1.27 1.27 1.27 1.22 1.20 1.17 1.17 1.17 1.16 1.16 1.16 1.17 1.18 1.19 1.18 1.16 1.15 1.19 1.17 1.17 1.13 1.07 1.08
1.43 1.38 1.32 1.32 1.31 1.30 1.28 1.24 1.20 1.06 0.94 1.09 1.14 1.21 1.27 1.27 1.29 1.28 1.27 1.25 1.22 1.19 1.17 1.16 1.15 1.18 1.19 1.20 1.19 1.20 1.20 1.22 1.22 1.20 1.15 1.15 1.14 1.11
1.44 1.38 1.35 1.38 1.33 1.31 1.31 1.28 1.20 1.16 1.00 1.04 1.14 1.23 1.22 1.21 1.24 1.29 1.31 1.28 1.26 1.23 1.20 1.20 1.20 1.19 1.20 1.23 1.24 1.26 1.26 1.24 1.20 1.19 1.16 1.20 1.17 1.15
1.47 1.45 1.40 1.42 1.39 1.37 1.32 1.27 1.25 1.26 1.16 1.03 1.14 1.18 1.20 1.26 1.30 1.31 1.31 1.33 1.30 1.29 1.27 1.25 1.25 1.27 1.28 1.29 1.27 1.26 1.25 1.23 1.21 1.20 1.23 1.22 1.22 1.17
1.51 1.48 1.52 1.48 1.43 1.45 1.43 1.35 1.34 1.35 1.32 1.25 1.22 1.27 1.30 1.32 1.30 1.35 1.36 1.36 1.36 1.35 1.33 1.32 1.30 1.29 1.27 1.27 1.28 1.25 1.25 1.26 1.29 1.25 1.23 1.22 1.21 1.18
1.46 1.48 1.53 1.51 1.45 1.49 1.47 1.43 1.44 1.40 1.37 1.31 1.23 1.27 1.27 1.34 1.33 1.27 1.23 1.33 1.32 1.37 1.38 1.36 1.37 1.34 1.34 1.31 1.31 1.30 1.29 1.30 1.29 1.27 1.25 1.24 1.21 1.17
1.47 1.46 1.47 1.47 1.46 1.43 1.43 1.48 1.47 1.37 1.38 1.25 1.21 1.27 1.23 1.21 1.22 1.26 1.22 1.26 1.34 1.36 1.30 1.34 1.35 1.37 1.36 1.38 1.39 1.37 1.38 1.34 1.31 1.30 1.26 1.23 1.21 1.16
1.36 1.39 1.45 1.47 1.45 1.48 1.46 1.46 1.43 1.35 1.31 1.23 1.24 1.22 1.27 1.36 1.40 1.27 1.20 1.22 1.10 1.33 1.26 1.28 1.33 1.35 1.35 1.37 1.35 1.35 1.33 1.34 1.31 1.29 1.25 1.23 1.20 1.14
1.28 1.32 1.37 1.44 1.49 1.46 1.45 1.46 1.44 1.44 1.44 1.37 1.27 1.30 1.29 1.32 1.37 1.27 1.30 1.27 1.25 1.36 1.29 1.19 1.30 1.26 1.32 1.34 1.34 1.33 1.32 1.33 1.31 1.28 1.26 1.21 1.17 1.13
1.24 1.31 1.25 1.30 1.36 1.42 1.39 1.37 1.36 1.38 1.42 1.38 1.36 1.33 1.39 1.43 1.41 1.37 1.33 1.32 1.30 1.30 1.33 1.12 1.24 1.20 1.22 1.25 1.29 1.30 1.30 1.28 1.25 1.24 1.22 1.20 1.16 1.12
0.88 1.02 1.12 1.23 1.26 1.25 1.23 1.23 1.24 1.25 1.43 1.40 1.45 1.44 1.42 1.39 1.42 1.37 1.25 1.20 1.11 1.15 1.26 1.16 1.12 1.13 1.17 1.13 1.19 1.23 1.22 1.22 1.20 1.19 1.18 1.17 1.15 1.11
0.66 0.71 0.78 0.87 0.98 1.15 1.16 1.18 1.09 1.17 1.29 1.30 1.29 1.35 1.36 1.32 1.34 1.33 1.25 1.12 1.07 1.01 1.16 1.07 1.07 1.09 0.96 1.06 1.13 1.14 1.15 1.18 1.17 1.16 1.15 1.12 1.10 1.06
0.60 0.60 0.70 0.77 0.77 0.80 0.88 0.93 0.95 1.17 1.15 1.19 1.19 1.22 1.24 1.28 1.25 1.29 1.26 1.22 1.07 1.05 1.16 1.08 1.01 0.99 0.93 0.90 0.97 1.03 1.06 1.09 1.09 1.09 1.11 1.08 1.05 1.02
0.49 0.50 0.54 0.63 0.71 0.79 0.82 0.82 0.86 0.90 0.94 0.99 1.00 1.01 1.08 1.12 1.18 1.22 1.23 1.24 1.22 1.17 1.19 1.10 0.99 1.00 0.92 0.87 0.87 0.96 0.99 1.02 1.03 1.01 1.01 1.00 0.99 0.98
0.51 0.50 0.49 0.50 0.52 0.59 0.65 0.75 0.84 0.86 0.85 0.79 0.77 0.84 0.94 1.02 1.11 1.10 1.16 1.15 1.10 1.12 1.13 1.05 1.05 0.99 0.98 0.90 0.87 0.85 0.83 0.89 0.93 0.93 0.94 0.92 0.90 0.87
0.44 0.44 0.48 0.51 0.48 0.48 0.56 0.61 0.65 0.76 0.82 0.83 0.83 0.83 0.89 0.91 0.89 0.95 0.96 0.99 1.02 0.98 0.99 1.08 1.03 0.99 0.85 0.87 0.84 0.78 0.80 0.79 0.84 0.85 0.87 0.88 0.86 0.84
0.42 0.40 0.37 0.38 0.39 0.41 0.45 0.52 0.56 0.60 0.62 0.70 0.76 0.82 0.83 0.82 0.82 0.85 0.86 0.84 0.82 0.81 0.87 0.91 0.93 0.90 0.86 0.83 0.77 0.78 0.76 0.76 0.77 0.78 0.76 0.74 0.77 0.78
0.35 0.35 0.34 0.33 0.32 0.33 0.36 0.39 0.45 0.48 0.53 0.60 0.66 0.73 0.77 0.82 0.82 0.78 0.80 0.79 0.76 0.79 0.85 0.84 0.80 0.80 0.80 0.80 0.81 0.75 0.73 0.70 0.70 0.69 0.69 0.65 0.64 0.68
0.29 0.30 0.31 0.32 0.33 0.33 0.37 0.38 0.40 0.44 0.50 0.52 0.56 0.60 0.65 0.71 0.76 0.77 0.76 0.77 0.79 0.81 0.80 0.79 0.80 0.75 0.68 0.65 0.72 0.77 0.69 0.66 0.64 0.62 0.62 0.62 0.59 0.62
0.29 0.28 0.30 0.30 0.30 0.31 0.36 0.38 0.42 0.47 0.46 0.50 0.52 0.57 0.61 0.65 0.66 0.69 0.75 0.74 0.74 0.75 0.73 0.74 0.73 0.73 0.68 0.64 0.62 0.67 0.71 0.64 0.61 0.57 0.56 0.57 0.58 0.59
0.28 0.28 0.30 0.31 0.31 0.31 0.37 0.38 0.43 0.46 0.48 0.47 0.51 0.56 0.61 0.62 0.61 0.67 0.71 0.71 0.71 0.71 0.68 0.68 0.71 0.75 0.72 0.70 0.62 0.60 0.63 0.65 0.62 0.57 0.54 0.51 0.48 0.48
0.33 0.30 0.32 0.32 0.32 0.32 0.37 0.38 0.43 0.46 0.45 0.49 0.53 0.57 0.60 0.60 0.60 0.63 0.67 0.64 0.65 0.67 0.65 0.66 0.68 0.68 0.65 0.61 0.56 0.55 0.55 0.57 0.58 0.58 0.56 0.54 0.48 0.43
0.39 0.37 0.36 0.36 0.34 0.34 0.39 0.39 0.45 0.48 0.48 0.51 0.55 0.55 0.59 0.57 0.59 0.60 0.60 0.60 0.60 0.61 0.61 0.59 0.63 0.63 0.58 0.54 0.51 0.49 0.48 0.48 0.48 0.47 0.47 0.49 0.46 0.44